Location: Alma
(38.7220°N, 88.9090°W)
Time: 05:28:07
(UTC-06:00)

Vanguard 2 Rocket - Pass Details

Date: 23 November 2019
Orbit: 554 x 3326 km, 32.9° (Epoch: 13 December)

Event Time Altitude Azimuth Distance (km) Brightness Sun altitude
Rises 01:12:39 0° 254° (WSW) 2,717 - -63.1°
Reaches altitude 10° 01:14:49 10° 246° (WSW) 1,834 - -62.8°
Maximum altitude 01:18:33 40° 175° (S) 910 - -62.2°
Drops below altitude 10° 01:23:18 10° 106° (ESE) 2,340 - -61.4°
Sets 01:26:25 0° 100° (E) 3,598 - -60.9°
